Regional Weather Roundup
Issued by NWS

Home | Current Version | Previous Version | Text Only | Print | Product List | Glossary On
Versions: 1 2 3 4 5 6 7 8 9 10 11 12 13 14 15 16 17 18 19 20 21 22 23 24 25 26 27 28 29 30 31 32 33 34 35 36 37 38 39 40 41 42 43 44 45 46 47 48 49 50
000
ASUS43 KDTX 180810
RWRMI
MICHIGAN HOURLY REGIONAL WEATHER ROUNDUP
NATIONAL WEATHER SERVICE DETROIT/PONTIAC MI
ISSUED BY NATIONAL WEATHER SERVICE GRAND RAPIDS MI
400 AM EDT FRI AUG 18 2017

NOTE: "FAIR" INDICATES FEW OR NO CLOUDS BELOW 12,000 FEET WITH NO
SIGNIFICANT WEATHER AND/OR OBSTRUCTION TO VISIBILITY.

MIZ047>049-052>055-059>063-066>070-074>076-081>083-180900-
SOUTHEAST LOWER MICHIGAN

CITY           SKY/WX    TMP DP  RH WIND       PRES   REMARKS
ADRIAN         PTCLDY    67  66  97 SW7       29.75S
ALMA           CLOUDY    68  65  91 SW10      29.65F
ANN ARBOR      CLEAR     70  66  87 S10       29.72S
BAD AXE        MOCLDY    68  64  88 SW6       29.66S
DETROIT CITY   CLEAR     72  66  81 SW10      29.70F
DETROIT        PTCLDY    70  66  87 SW13      29.73S
FLINT          MOCLDY    70  65  84 SW7       29.68S
GROSSE ILE     CLEAR     72  66  82 SW7       29.71S
HILLSDALE      PTCLDY    68  63  83 W10G17    29.75F
HOWELL         CLEAR     70  66  87 SW7       29.70S

CITY           SKY/WX    TMP DP  RH WIND       PRES   REMARKS
JACKSON          N/A     70  62  76 SW18      29.73R
LANSING        CLOUDY    70  64  81 SW14G23   29.69S
MASON          MOCLDY    71  63  76 W9G18     29.71R
MONROE         CLEAR     70  66  87 SW8       29.73S
MT. CLEMENS    PTCLDY    73  67  83 SW8       29.68F
PONTIAC        CLEAR     70  67  90 SW8       29.69F
PORT HOPE        N/A     69  65  86 SW7       29.62F
PORT HURON     CLEAR     72  66  83 SW5       29.69S
TRI CITIES     CLOUDY    70  67  90 SW12      29.64F
YPSILANTI      CLEAR     71  67  87 SW12      29.72S
$$
MIZ043>046-050>051-056>058-064>065-071>073-077>080-180900-
SOUTHWEST LOWER MICHIGAN

CITY           SKY/WX    TMP DP  RH WIND       PRES   REMARKS
BATTLE CREEK   PTCLDY    69  63  81 W13       29.74S
BENTON HARBOR  CLOUDY    70  64  81 W15       29.75S
BIG RAPIDS     CLOUDY    65  61  86 W9        29.65S
COLDWATER      CLEAR     67  62  83 SW6       29.76S
HOLLAND        CLOUDY    70  62  76 W12G22    29.72S
GRAND RAPIDS   CLOUDY    68  64  87 W13       29.69S
KALAMAZOO      MOCLDY    71  60  68 W13G20    29.74S
MARSHALL       CLEAR     68  62  80 SW12G17   29.73S
MOUNT PLEASANT DRIZZLE   70  65  85 SW6       29.63S
MUSKEGON       CLOUDY    69  63  81 W13       29.69R
STURGIS        CLEAR     67  63  87 SW7       29.76S
$$
MIZ016>042-180900-
NORTHERN LOWER MICHIGAN

CITY           SKY/WX    TMP DP  RH WIND       PRES   REMARKS
ALPENA         MOCLDY    68  67  96 S7        29.56F
BEAVER ISLAND  CLOUDY    67  67 100 W15       29.51S
BELLAIRE       HVY RAIN  67  65  93 SW6       29.55F
CADILLAC       DRIZZLE   66  63  89 SW10      29.62S
CHARLEVOIX     CLOUDY    68  68 100 W15G24    29.56S
GAYLORD        LGT RAIN  65  63  93 SW15      29.57F
HOUGHTON LAKE  CLOUDY    67  63  87 SW10G24   29.61F
MANISTEE       CLOUDY    66  63  90 W16       29.62R
OSCODA         MOCLDY    68  66  93 SW14G20   29.59F
PELLSTON       LGT RAIN  68  67  96 SW5       29.51F
TRAVERSE CITY  CLOUDY    67  65  93 SW9       29.56S
LUDINGTON      CLOUDY    66  60  79 W12G18    29.64R
$$
MIZ007>008-015-180900-
EASTERN UPPER MICHIGAN

CITY           SKY/WX    TMP DP  RH WIND       PRES   REMARKS
KINROSS        LGT RAIN  67  67 100 S7        29.51F FOG
MACKINAC ISLAN CLOUDY    67  67 100 S6        29.50F
NEWBERRY       FOG       66  65  97 CALM      29.50S VSB 1/2
S. S. MARIE    HVY RAIN  65  64  97 E7        29.50F FOG
$$
MIZ004>006-011>014-085-180900-
CENTRAL UPPER MICHIGAN

CITY           SKY/WX    TMP DP  RH WIND       PRES   REMARKS
MANISTIQUE     CLOUDY    64  58  81 NW10      29.52R
ESCANABA       CLOUDY    63  60  90 W12       29.56R
MENOMINEE      CLOUDY    64  59  83 NW8       29.61S
SAWYER-GWINN   CLOUDY    60  58  96 W16       29.57S
$$
MIZ001>003-009>011-084-180900-
WESTERN UPPER MICHIGAN

CITY           SKY/WX    TMP DP  RH WIND       PRES   REMARKS
IRON MOUNTAIN  CLOUDY    62  57  83 NW8G18    29.60F
HOUGHTON       LGT RAIN  57  55  93 N20G29    29.61R FOG
COPPER HARBOR    N/A     55  54  96 NE14      29.59R
IRONWOOD       CLOUDY    60  59  96 NW12      29.74R
$$

ABBREVIATIONS USED IN REMARKS
   TC - TEMPERATURE IN CELSIUS
  WCI - WIND CHILL INDEX
   HX - HEAT INDEX
  VSB - VISIBILITY





USA.gov is the U.S. government's official web portal to all federal, state and local government web resources and services.